Wind_Speed
19 18 17 17 18 18 20 21 22 21 19 17 14 12 10 9 8 6 5 4 2 2 4 6 8 8 7 9 11 7 2 2 4 6 9 11 10 8 7 6 7 8 7 6 5 4 5 4 3 4 6 8 10 11 11 12 10 8 9 9 8 8 7 7 7 6 7 6 6 6 6 7 8 7 6 6 7 8 8 8 8 7 7 8 8
19 18 18 18 19 19 20 20 21 21 20 18 15 13 11 10 9 8 7 4 3 3 4 5 8 10 8 7 9 5 4 3 4 6 9 10 9 7 7 7 7 8 7 5 4 4 6 5 4 5 7 8 10 11 11 12 11 8 8 8 7 7 7 6 7 6 6 6 5 5 5 6 7 6 6 6 6 7 7 7 7 7 7 8 9
18 18 18 19 20 20 21 20 20 21 20 18 16 14 12 11 10 9 8 6 4 4 5 6 8 10 8 7 6 5 5 4 4 6 8 9 8 6 7 7 7 8 9 6 5 5 6 6 6 6 7 8 9 11 11 12 12 9 7 7 7 6 7 7 7 8 7 7 7 6 6 6 7 7 7 6 6 7 7 8 9 9 9 10 11
18 17 17 19 21 21 21 21 20 19 20 19 17 16 14 12 11 10 10 8 6 5 5 5 7 8 8 8 6 5 5 4 4 6 8 8 7 6 7 7 7 9 10 7 5 5 6 6 7 6 6 8 9 10 11 13 12 9 7 6 5 6 7 8 8 9 9 9 9 8 8 8 8 8 8 9 9 9 10 11 12 12 10 10 11
19 18 18 18 20 21 20 21 20 19 19 20 19 17 15 14 13 12 11 10 7 5 5 5 5 6 6 7 6 4 4 4 3 5 7 7 6 6 7 6 7 9 9 7 5 3 6 7 6 6 6 8 10 10 10 12 11 7 7 6 5 6 7 8 9 10 10 10 10 9 10 10 9 9 9 10 11 11 12 13 13 12 11 10 10
20 19 18 18 19 20 21 21 20 18 19 20 20 18 17 16 14 13 12 11 9 7 6 5 4 5 6 5 4 2 2 2 3 5 7 6 6 6 7 6 6 9 9 8 5 3 5 6 6 6 5 8 10 11 10 10 10 7 7 6 6 7 8 9 10 10 10 11 11 11 12 11 10 10 9 9 10 11 12 12 13 12 12 13 13
22 21 20 19 19 20 21 21 20 18 18 19 20 19 18 17 15 14 13 12 10 8 7 6 5 5 5 4 1 1 2 3 4 6 8 6 6 6 7 7 6 9 9 9 6 4 5 6 5 5 4 7 9 11 10 9 10 8 7 6 6 7 8 9 10 9 11 12 12 12 12 12 11 11 10 10 10 10 10 11 12 11 12 14 13
23 23 21 20 19 20 21 21 20 18 18 19 20 20 19 18 16 15 15 13 11 9 8 7 7 7 6 4 2 4 4 4 5 7 8 7 6 7 8 7 6 8 9 10 8 4 6 6 4 5 5 6 8 10 10 9 10 9 7 5 6 8 8 9 10 10 12 12 12 12 12 12 12 12 12 11 11 11 11 13 11 10 13 13 13
23 25 23 21 20 20 21 21 20 19 19 19 19 20 19 19 17 15 16 15 12 11 10 8 9 9 7 7 3 7 6 5 6 7 8 7 7 7 8 7 7 8 9 11 9 5 6 6 3 6 7 5 7 10 9 8 9 9 7 6 6 8 9 9 10 10 12 12 12 12 12 12 12 12 13 13 13 13 13 13 11 12 14 15 14
24 25 24 22 20 21 22 21 21 20 20 19 19 20 20 20 18 17 16 16 14 13 12 11 9 8 8 8 2 8 7 6 7 7 7 7 7 7 8 7 7 8 9 10 9 7 7 6 5 6 7 5 7 10 9 7 8 9 8 6 7 9 10 9 9 9 11 12 12 12 11 12 13 12 13 13 14 14 13 13 13 14 15 16 16
25 24 25 24 21 21 23 22 22 22 21 20 20 21 21 21 20 18 17 16 15 14 13 11 7 6 6 6 2 8 8 7 7 7 8 8 8 8 8 7 8 8 8 9 9 8 7 6 6 7 8 7 7 9 10 7 6 9 8 7 7 8 9 9 8 9 10 11 11 11 11 12 12 12 13 13 14 14 14 14 14 15 16 16 16
27 24 24 25 23 22 23 22 22 22 22 21 21 22 22 21 20 19 18 17 16 15 13 9 7 4 3 3 4 6 7 7 7 8 9 9 9 9 8 7 8 8 8 8 8 9 8 5 5 8 10 9 8 9 9 8 5 8 8 7 7 7 7 7 7 8 9 10 10 10 10 11 12 12 12 13 13 14 14 14 15 16 16 17 17
28 25 24 25 24 23 24 23 22 22 22 22 21 21 21 21 21 19 19 17 17 15 12 9 7 2 1 3 4 6 7 7 7 9 10 11 11 9 8 8 8 8 8 8 8 9 8 6 6 8 9 8 8 8 9 8 7 7 8 9 8 7 8 7 7 7 7 8 9 9 9 9 11 11 11 12 12 12 13 15 15 15 16 16 17
30 29 25 25 24 24 25 24 23 22 22 21 21 21 22 22 22 21 19 18 17 15 11 8 4 1 1 2 3 3 5 6 8 10 11 12 11 10 9 8 8 8 8 8 8 8 7 7 7 7 8 7 8 8 9 10 9 7 7 8 7 7 8 8 7 7 7 8 9 9 7 8 9 10 10 11 11 12 14 15 14 14 15 16 17
32 31 27 25 24 25 26 25 24 23 22 21 21 21 22 22 23 22 20 17 16 15 13 9 4 1 2 1 0 1 0 3 5 7 9 10 10 10 9 8 8 7 8 9 9 8 6 7 7 7 7 7 8 9 9 10 9 8 7 6 6 7 9 8 7 8 7 8 9 8 7 8 9 9 9 10 11 12 13 15 14 15 15 16 17
33 32 29 27 25 25 27 26 25 24 23 22 22 22 23 23 24 23 21 17 15 14 13 11 8 4 1 1 0 1 1 2 1 2 4 6 9 10 9 8 7 7 7 8 10 10 7 7 6 6 7 7 9 9 8 8 8 8 6 5 5 7 10 8 7 8 7 7 8 7 7 8 9 10 10 10 10 11 13 15 16 15 15 16 17
33 32 31 29 26 27 28 27 25 24 24 23 23 23 23 24 25 25 23 19 16 14 13 11 10 9 6 3 0 1 1 2 0 1 2 4 7 9 8 8 6 7 8 9 11 12 9 9 7 6 7 8 9 9 8 8 9 10 7 5 5 7 10 9 8 8 7 8 8 7 8 8 9 10 10 10 9 10 14 16 16 15 14 15 17
34 34 33 30 28 28 29 28 26 25 25 24 24 24 24 25 25 26 24 21 19 17 15 13 11 10 9 8 7 5 1 2 1 1 2 3 5 7 7 7 7 7 9 9 11 12 10 10 9 7 8 9 10 10 10 10 11 10 7 6 6 8 10 10 8 9 8 8 8 8 9 9 9 10 9 10 9 11 15 16 15 15 14 15 16
35 34 33 32 31 30 30 30 28 26 25 25 26 26 26 25 25 26 25 22 21 21 19 17 14 11 11 11 12 12 8 4 2 1 1 3 5 6 6 6 7 7 8 9 11 12 11 10 9 9 9 10 13 14 13 12 12 10 8 7 8 8 11 10 9 10 9 8 9 9 10 9 10 10 8 8 10 13 16 16 14 15 14 13 14
36 35 34 34 33 32 32 32 30 28 26 26 26 27 27 27 25 25 25 24 24 24 22 20 17 14 12 11 11 14 14 10 9 6 2 1 2 4 5 6 7 7 7 8 11 13 13 10 8 9 9 8 12 15 16 14 11 9 9 9 9 8 11 11 9 10 9 8 9 10 10 10 10 11 9 9 11 14 15 14 14 15 14 13 13
36 35 35 35 35 35 35 34 33 31 28 27 26 27 28 28 27 26 25 25 26 25 24 22 21 18 16 13 11 11 12 11 11 9 3 1 2 2 4 6 6 8 8 8 9 12 13 12 10 9 9 8 8 12 17 16 11 9 10 10 9 8 10 12 10 11 10 9 10 11 11 11 11 12 11 10 12 13 13 13 14 15 14 12 13
36 36 36 36 36 37 36 36 35 33 31 28 27 28 29 30 29 28 27 27 27 26 26 24 23 21 18 15 11 9 8 7 9 8 4 2 1 1 4 6 5 7 10 9 8 10 11 13 13 11 10 11 8 9 14 15 13 11 10 10 10 8 10 12 12 12 11 10 11 12 11 11 12 12 12 11 12 13 11 12 15 15 13 12 13
36 36 35 35 37 37 37 36 36 35 33 31 30 29 30 30 29 29 29 29 29 28 27 25 23 22 20 18 16 13 11 10 11 12 8 4 2 1 3 5 4 4 8 9 8 9 10 13 16 12 10 12 11 9 10 12 13 13 11 11 11 9 10 13 13 13 12 11 11 12 12 12 12 12 13 12 11 12 11 11 14 15 13 13 14
35 35 35 35 35 36 36 36 36 36 36 34 32 31 30 30 30 30 30 30 30 29 27 25 24 23 22 20 19 18 18 17 16 15 14 11 7 3 4 5 3 2 5 8 7 8 9 13 16 14 10 10 12 12 11 10 12 13 12 12 11 9 10 13 13 14 13 12 12 12 12 12 12 12 13 12 12 12 12 11 12 14 12 12 13
33 34 35 35 34 35 36 36 37 38 38 37 35 33 31 31 31 31 32 31 31 30 28 27 25 24 23 22 21 20 20 19 18 16 16 14 10 5 5 4 3 3 4 6 6 6 6 10 14 14 11 10 11 13 12 9 11 13 13 12 11 9 10 13 14 15 14 12 12 12 12 12 12 12 12 12 12 13 13 12 12 13 12 11 12
32 34 35 34 34 35 36 38 38 37 37 37 36 35 33 32 32 32 32 32 31 30 29 27 26 24 23 22 22 21 21 20 19 18 16 15 12 9 7 4 3 4 5 5 6 6 5 8 13 14 12 11 13 13 12 11 11 13 15 13 11 10 11 14 15 15 15 14 12 12 12 12 13 13 12 12 12 12 14 13 12 13 13 12 12
28 30 33 34 34 35 36 37 36 35 35 36 36 36 34 33 33 33 32 31 30 30 29 27 26 24 23 22 22 22 21 20 19 18 17 17 16 14 12 6 3 2 4 4 6 7 7 8 11 15 13 11 12 11 10 12 13 15 17 14 12 11 12 13 14 16 16 15 13 13 12 12 13 13 12 12 12 12 13 13 12 12 13 13 13
31 30 32 35 36 35 36 36 35 35 35 35 36 36 35 34 33 33 32 30 29 29 29 28 26 24 22 21 21 22 21 20 20 19 18 18 17 15 15 12 6 2 3 4 5 6 9 10 10 14 14 11 11 10 9 11 15 17 19 17 13 13 14 13 14 15 17 16 14 14 13 13 14 13 12 13 14 13 13 13 13 13 13 13 13
39 38 37 37 37 37 37 37 35 35 35 35 36 36 35 34 34 33 31 29 29 29 28 28 26 25 22 21 21 22 21 21 21 20 19 18 18 16 16 16 12 6 3 4 5 7 10 12 12 13 16 14 14 14 12 11 14 17 20 19 15 14 15 14 13 14 18 18 16 15 14 14 15 13 13 14 14 13 13 13 13 13 13 13 13
38 39 40 39 38 38 38 38 35 34 35 35 36 36 35 34 34 33 32 30 30 30 29 28 27 25 23 21 21 22 22 21 20 20 19 19 19 18 17 17 16 11 7 4 4 8 12 14 14 14 17 18 17 18 16 13 14 18 21 18 15 15 16 15 12 13 17 19 18 17 15 15 16 14 14 15 14 14 13 13 14 14 14 14 13
36 37 38 39 39 39 40 39 37 35 35 35 35 35 35 34 33 32 32 31 31 31 30 30 28 26 25 23 22 23 23 21 20 19 20 20 20 19 18 18 18 17 14 8 3 6 12 13 14 16 17 19 19 20 19 15 11 16 21 18 14 16 17 15 13 12 16 20 20 18 17 16 16 15 15 15 15 15 14 14 15 14 15 15 14
37 36 36 38 39 39 40 39 38 36 35 35 35 35 34 34 33 32 32 31 31 31 31 30 29 28 26 24 23 23 23 22 21 20 20 21 20 19 19 19 19 18 18 13 5 5 11 13 14 16 17 18 19 19 20 17 11 15 20 18 15 17 18 17 14 12 15 19 20 19 18 16 15 16 16 15 15 15 15 15 15 15 15 15 16
37 36 36 37 38 38 38 37 36 36 36 35 35 34 34 34 33 32 31 30 31 30 30 30 29 29 28 26 24 23 23 22 22 21 21 22 20 19 19 19 20 19 18 17 10 6 9 13 13 14 15 17 19 18 20 20 15 16 20 20 18 18 19 19 17 14 16 18 19 19 18 16 15 14 16 16 16 16 16 16 16 16 16 16 17
37 36 36 36 37 36 36 35 34 34 34 34 34 34 34 33 32 31 30 30 30 30 29 29 30 29 29 27 24 23 22 22 22 22 22 22 20 19 20 19 20 20 18 18 15 9 10 13 14 14 15 17 19 19 21 21 18 18 22 23 21 20 20 21 19 17 18 19 20 19 18 17 15 14 15 17 18 18 18 18 17 17 17 17 17
35 36 35 35 35 35 34 33 33 33 33 34 34 34 34 34 32 31 30 30 30 30 30 30 30 30 30 28 26 23 22 22 22 23 23 22 20 19 20 19 19 20 20 19 17 13 12 13 15 17 17 19 20 20 21 21 18 18 22 23 23 22 22 23 22 20 19 20 21 21 19 17 16 14 13 16 18 18 19 19 18 17 17 16 16
33 34 34 34 33 33 34 34 32 33 33 33 33 34 35 34 33 32 31 31 31 32 32 31 30 30 31 30 26 24 23 23 23 24 23 22 20 19 19 18 17 18 20 20 19 17 15 15 16 18 19 20 21 20 21 22 19 18 20 22 23 23 23 23 23 22 21 21 21 22 21 19 18 16 14 14 17 17 17 20 19 16 15 17 16
32 33 33 33 33 33 35 35 34 32 33 33 33 33 34 34 33 32 31 31 32 32 33 32 31 31 32 30 26 24 24 25 25 25 24 22 21 21 20 19 17 17 19 21 20 19 17 17 17 18 18 20 21 20 21 23 22 19 19 21 23 23 23 23 24 24 23 22 22 22 22 21 20 19 17 15 16 15 15 18 21 18 15 16 19
32 33 33 34 33 33 34 36 35 33 32 32 32 33 33 32 31 31 30 30 31 32 32 32 31 31 32 29 25 23 25 27 26 26 25 23 23 24 22 20 19 19 20 21 21 20 19 18 18 18 20 21 21 20 21 23 24 23 21 21 22 23 23 24 25 25 25 25 24 24 24 23 22 21 19 18 17 16 15 16 20 22 19 17 18
32 32 34 34 34 34 34 36 36 34 32 31 32 31 31 31 30 30 30 29 30 31 31 31 31 31 31 29 24 23 26 27 27 27 25 24 25 25 24 21 20 21 22 22 22 22 19 19 18 18 21 22 22 21 21 22 24 23 23 23 22 23 24 24 25 26 27 27 26 25 25 24 23 22 21 20 19 19 17 16 18 22 23 21 18
33 33 34 34 33 33 32 32 32 32 29 29 31 31 30 30 30 29 28 28 29 30 30 30 30 30 30 29 25 24 26 27 28 28 27 26 26 27 26 23 22 23 23 23 23 23 21 20 19 18 19 21 22 21 20 22 23 23 24 25 24 24 26 25 24 25 26 27 28 28 27 26 25 24 23 22 22 21 21 19 18 20 24 25 22
34 33 33 32 31 32 31 28 26 25 24 23 25 27 27 28 28 27 27 27 27 28 28 28 28 29 30 30 27 26 27 28 28 28 28 28 27 28 26 25 23 24 24 24 24 24 22 20 19 17 17 20 22 22 22 26 28 25 24 25 24 25 26 24 24 25 25 26 28 30 30 29 28 28 27 26 25 25 24 23 21 20 23 26 25
31 31 31 30 31 33 34 31 28 28 29 28 26 26 25 25 25 25 25 26 26 26 26 26 27 28 30 31 30 29 28 28 28 29 30 29 28 27 26 25 25 26 26 26 26 26 25 23 21 19 18 20 23 26 27 29 29 25 23 24 24 23 22 21 20 24 26 25 26 28 30 30 30 30 30 29 28 28 27 27 25 22 22 24 27
29 29 29 30 31 32 32 32 30 30 33 35 34 32 30 28 26 25 25 25 25 25 26 26 26 27 29 31 31 30 29 30 30 29 30 30 29 27 26 25 25 26 28 28 28 28 27 25 24 23 21 22 25 27 28 28 27 26 25 26 25 22 21 19 16 18 24 26 26 26 29 31 31 31 32 31 31 31 30 29 28 25 23 23 24
28 28 28 29 31 31 30 30 30 30 32 35 34 33 33 32 31 30 29 27 25 25 25 26 27 27 28 30 31 31 31 32 32 31 30 30 29 28 27 26 25 26 28 28 29 30 29 27 26 26 26 26 25 25 27 28 28 28 26 25 25 24 24 23 21 19 22 26 26 25 27 30 31 31 32 33 33 33 32 30 29 28 25 23 23
27 27 28 29 29 29 29 29 29 31 33 35 34 33 33 34 34 33 33 31 28 27 27 27 28 29 29 29 31 32 33 33 33 32 32 31 30 29 28 27 27 27 28 29 30 32 32 31 29 29 30 30 27 27 29 29 28 28 27 26 26 25 24 26 28 26 23 22 24 24 24 28 30 30 32 33 33 34 33 31 30 29 27 25 24
26 27 28 28 28 28 28 29 30 33 34 35 35 34 34 35 35 35 34 34 32 31 30 29 30 30 30 30 31 32 33 33 32 32 32 31 30 30 30 30 31 31 30 31 32 33 35 34 33 33 33 32 30 29 29 28 28 28 29 29 28 28 28 29 29 26 22 21 23 22 21 24 27 28 31 32 31 33 34 33 32 32 29 27 26
27 27 28 28 29 29 29 30 30 32 33 34 35 36 36 36 36 36 35 35 34 33 32 31 31 31 31 31 31 31 31 32 32 32 31 31 30 31 32 33 34 34 34 34 35 35 37 37 37 36 35 33 32 31 29 29 29 28 26 26 27 27 28 26 22 21 21 21 22 21 18 20 24 26 28 30 30 31 33 33 33 33 31 29 27
26 26 26 27 28 29 29 29 30 31 32 34 35 36 37 36 36 35 34 33 32 32 32 32 32 32 32 31 31 31 31 32 33 32 30 30 30 31 33 34 35 36 37 37 36 36 37 37 37 37 36 35 33 32 30 28 27 28 25 23 22 23 22 20 18 20 22 21 23 24 20 18 21 24 25 27 28 29 31 31 32 33 33 31 28
24 25 26 27 28 28 28 29 30 31 33 34 35 36 37 36 35 35 34 33 31 31 31 32 32 32 32 32 32 32 32 33 33 32 30 30 31 32 33 34 35 36 38 39 38 38 39 39 39 38 37 36 34 32 30 25 24 26 27 25 24 25 23 20 18 21 23 23 25 26 23 19 20 22 23 23 25 27 28 29 31 32 33 33 30
27 28 29 28 29 29 29 30 32 32 33 34 35 36 37 37 35 35 35 33 32 32 32 31 31 32 32 32 32 32 33 33 33 32 30 30 32 33 34 33 31 33 38 39 38 39 39 39 39 38 36 36 34 33 32 28 25 27 28 29 29 29 27 23 20 20 21 24 28 27 23 19 19 21 22 19 19 24 26 27 29 31 31 30 30
28 29 29 29 29 30 31 32 33 34 34 34 35 36 37 36 35 35 34 33 33 34 34 33 32 32 32 31 31 32 32 32 32 31 31 31 33 34 34 31 29 32 38 39 38 39 39 39 40 40 39 38 36 36 35 31 29 29 30 31 31 31 32 29 23 16 12 17 29 30 25 22 22 23 22 15 9 15 23 26 27 29 29 29 29
Wind_Direction
202 208 210 210 211 214 214 211 209 209 212 214 216 217 221 229 237 245 254 261 302 1 5 16 22 10 4 3 350 347 10 131 143 168 188 193 198 194 202 209 174 166 176 176 181 168 145 143 129 89 74 57 48 54 71 80 78 82 86 83 80 74 70 66 58 51 51 57 63 72 73 71 69 65 66 62 54 55 59 65 65 65 69 75 76
206 210 215 215 214 215 217 216 213 213 215 217 219 221 224 230 241 256 263 265 278 318 342 0 17 8 8 16 3 22 95 113 133 168 187 193 198 197 209 209 174 166 178 186 198 169 142 140 128 91 71 61 51 55 73 85 82 82 88 81 75 73 68 58 47 38 37 43 44 56 69 73 71 65 62 56 50 59 63 65 68 69 74 82 83
209 210 214 217 217 216 218 219 217 216 218 220 221 225 227 231 242 255 263 265 268 300 327 349 12 10 17 36 30 64 100 108 133 175 189 193 200 205 216 207 169 169 189 205 207 169 145 145 136 103 77 65 56 58 71 85 85 82 88 85 77 72 61 51 45 40 45 53 55 55 60 72 77 73 66 60 57 67 73 74 76 78 83 89 88
212 212 215 217 218 217 218 220 219 218 220 224 224 228 232 234 243 252 259 263 262 288 322 348 10 13 28 48 53 77 100 111 145 184 192 196 204 215 225 206 167 174 198 207 201 169 147 145 138 116 83 67 63 65 69 81 85 77 82 88 77 66 52 48 52 57 66 65 57 54 59 73 81 80 75 73 73 78 80 78 77 76 78 85 90
213 215 216 217 217 216 218 220 219 217 221 227 228 231 235 237 244 249 255 260 259 277 311 338 5 11 21 39 49 69 105 121 162 196 198 200 206 221 229 210 172 177 200 209 204 169 145 144 136 125 90 68 73 78 75 79 82 68 73 83 67 60 50 53 67 74 71 58 51 57 69 79 81 83 85 81 78 80 80 77 72 69 75 84 93
215 216 216 218 217 213 215 219 219 216 220 227 231 233 236 239 243 247 252 257 259 272 296 317 351 1 358 9 31 64 115 140 190 205 205 202 204 221 226 215 183 178 199 210 202 172 156 150 134 134 105 75 82 91 88 83 82 73 76 78 58 54 56 66 79 77 63 56 64 72 76 80 80 81 88 88 81 80 79 74 72 73 79 85 91
216 217 216 218 218 212 211 216 218 216 218 227 233 234 236 238 242 247 250 253 259 270 286 302 331 354 357 355 352 156 150 177 206 210 209 201 198 215 220 216 192 180 196 210 204 176 174 167 139 146 120 84 89 98 95 87 87 84 79 68 46 54 66 76 81 72 63 64 72 78 78 79 79 79 88 94 86 79 77 77 81 83 85 88 93
216 217 217 220 219 211 209 212 216 216 217 225 233 236 237 239 241 247 250 254 260 269 279 293 320 341 352 348 280 195 178 186 203 209 207 199 196 208 214 213 197 181 191 212 213 167 169 183 153 150 144 100 93 102 102 97 93 87 81 61 43 63 76 81 84 77 70 71 75 78 79 79 79 80 85 86 85 84 83 87 90 91 93 95 95
217 219 219 221 221 211 207 209 213 216 217 223 232 236 239 241 241 243 251 259 263 270 277 286 313 329 339 339 274 199 191 193 197 205 205 201 198 203 209 208 198 183 190 212 216 179 174 197 172 150 160 127 93 104 114 109 96 92 94 69 52 73 84 83 86 85 77 73 76 78 79 83 84 84 85 84 88 92 91 92 91 92 98 99 95
219 222 222 224 224 215 209 207 209 214 218 221 228 235 238 242 241 239 247 260 267 275 281 287 313 326 334 342 269 195 195 196 197 201 206 208 201 201 207 204 197 189 194 208 210 200 194 196 178 161 175 156 102 107 121 120 94 95 104 85 72 83 87 85 85 87 81 75 77 78 79 84 86 85 87 88 91 94 93 93 90 90 96 96 94
219 224 226 226 226 221 214 209 207 211 217 220 224 231 236 240 241 239 244 258 268 278 285 288 310 328 343 3 157 187 196 198 200 204 212 217 208 205 207 200 198 195 197 203 203 206 206 199 181 170 186 175 122 112 124 136 108 100 109 97 90 94 91 92 90 88 85 79 78 80 81 84 86 87 89 91 94 96 94 93 94 94 95 93 93
219 222 228 229 228 226 219 212 209 209 214 218 222 229 234 237 240 240 245 256 267 277 285 283 290 319 10 52 147 180 198 201 204 210 216 221 215 211 211 199 195 195 197 198 201 212 215 211 189 176 190 181 142 125 129 145 126 104 111 110 107 108 103 99 96 95 91 87 82 79 82 85 89 89 88 92 97 100 100 97 97 96 95 95 96
220 220 224 228 227 227 223 217 212 210 213 218 221 227 232 236 238 240 246 256 264 272 277 274 279 307 77 104 134 167 191 201 211 217 218 221 219 214 214 204 192 191 194 190 198 220 228 220 194 181 189 180 155 147 141 145 136 109 111 120 123 120 116 108 105 104 96 95 90 83 83 85 91 93 91 96 99 101 103 101 99 98 98 99 101
222 219 220 224 225 224 224 221 215 211 213 217 220 225 230 234 235 237 244 253 262 265 266 267 270 308 112 106 99 139 183 198 212 222 221 219 221 216 214 207 195 191 186 182 191 213 228 221 197 187 192 178 166 168 155 148 148 134 120 128 133 125 123 118 115 113 104 104 97 86 89 88 91 96 96 100 100 101 104 104 104 105 104 105 106
222 220 217 221 224 222 222 222 219 214 213 216 219 222 227 232 233 235 241 251 259 258 257 255 234 150 67 64 89 90 185 224 219 226 225 219 220 218 213 207 201 194 178 175 190 202 212 216 200 190 192 179 178 184 168 155 156 153 138 133 136 128 127 124 121 121 115 114 101 90 98 97 96 100 101 103 105 108 109 108 106 103 104 106 106
221 220 218 219 222 221 220 221 223 220 217 218 221 222 225 229 231 232 238 246 250 250 251 250 239 223 154 73 78 90 286 265 218 205 223 217 219 219 212 207 204 194 179 175 194 206 208 209 202 191 193 189 190 190 176 166 166 161 149 134 136 133 132 131 127 126 125 121 107 98 107 106 103 108 110 110 113 118 116 111 106 102 104 107 108
220 220 218 219 220 220 218 218 222 224 223 223 225 226 226 227 229 230 237 243 242 241 243 244 246 241 222 198 248 7 266 241 76 51 210 204 216 219 215 212 208 199 193 186 194 205 208 210 207 192 194 197 193 190 180 176 176 171 158 140 145 141 138 139 134 133 133 122 109 110 117 114 109 113 118 117 118 122 117 111 109 109 112 113 114
219 219 219 219 220 219 217 215 218 224 226 228 229 230 231 231 230 231 236 243 243 238 236 239 245 246 238 235 242 254 234 167 146 335 237 217 218 220 218 211 209 208 203 191 188 196 202 208 206 189 191 205 202 192 183 182 181 177 169 150 148 149 146 147 140 137 137 122 113 120 125 121 119 120 125 127 126 123 119 116 113 112 115 117 117
218 218 219 220 221 220 218 215 216 221 226 229 230 232 235 234 233 233 236 241 242 236 237 242 244 246 251 250 248 249 245 221 214 237 236 237 224 217 216 202 197 205 206 198 191 195 199 196 195 190 194 214 211 194 184 188 183 174 175 160 149 154 156 154 146 142 140 127 122 127 130 128 127 128 129 132 133 128 123 121 117 114 115 117 117
217 218 218 219 221 221 218 215 215 219 223 229 231 232 235 237 237 237 237 240 241 237 239 244 244 248 254 256 257 252 248 247 245 236 191 178 217 214 214 203 197 201 209 210 199 200 203 186 181 192 189 207 213 195 187 191 186 178 181 168 152 153 159 159 152 146 144 137 135 137 139 136 133 134 133 129 130 129 125 125 123 119 120 124 121
217 218 219 218 220 222 219 215 215 217 221 227 232 233 235 236 237 237 238 239 239 238 240 245 248 253 256 255 256 249 242 244 242 231 200 179 215 210 200 197 208 211 210 213 201 202 203 186 184 197 184 183 201 198 195 195 193 191 188 171 155 148 155 162 160 153 149 146 146 145 144 142 140 140 138 130 127 128 128 130 130 125 126 134 128
216 217 219 218 218 220 219 217 216 216 219 225 230 233 233 234 236 238 240 241 239 238 241 247 252 256 258 253 245 230 220 223 223 216 207 205 216 210 188 182 201 214 208 204 194 197 196 188 196 206 195 191 193 193 198 202 202 197 189 174 161 150 154 164 166 159 153 150 150 150 148 147 146 146 145 138 131 132 136 138 137 132 130 138 133
214 215 217 218 218 219 220 220 219 218 218 222 228 232 233 234 235 237 239 241 241 241 242 247 251 254 255 252 245 235 226 224 222 216 212 206 200 192 175 174 172 193 204 203 195 194 188 189 202 207 201 204 204 188 188 205 206 196 190 177 165 159 160 167 169 162 157 154 153 154 153 151 150 151 150 147 143 140 142 141 138 136 138 141 137
211 212 215 218 218 219 219 219 220 220 220 222 227 232 234 235 235 236 237 239 241 242 243 245 248 249 251 253 253 248 242 240 236 227 224 224 219 182 136 155 148 137 189 194 193 199 195 195 200 202 201 207 213 201 185 201 206 193 190 181 170 172 169 168 171 167 162 159 155 156 157 156 155 154 151 150 152 149 145 142 138 139 144 149 146
208 209 212 215 217 217 217 219 220 220 221 222 225 230 233 233 234 234 236 238 240 241 243 245 247 248 252 255 255 251 247 245 243 236 230 229 222 184 131 135 139 130 163 177 181 193 201 199 197 199 203 204 216 210 193 207 216 198 191 182 176 184 178 172 173 171 168 162 159 159 159 162 160 157 155 153 155 152 149 151 150 147 149 153 152
206 208 210 212 216 218 218 220 221 220 220 222 224 227 229 231 232 233 234 236 238 241 243 245 247 248 251 254 255 253 250 247 243 237 229 225 218 192 156 110 96 134 156 176 184 185 184 193 198 198 201 214 224 213 199 214 221 204 195 185 184 196 186 177 176 174 171 167 164 164 164 167 165 160 159 160 159 154 150 154 156 156 157 155 154
207 209 212 212 216 219 219 220 220 220 220 222 223 225 226 228 230 231 232 234 236 240 242 244 245 247 251 253 254 254 251 247 243 239 233 230 228 210 184 150 91 129 166 182 194 205 196 184 197 199 197 212 221 212 211 220 216 206 197 187 190 202 193 183 180 176 175 174 171 170 170 170 171 169 166 165 165 161 157 157 160 163 164 160 160
210 211 215 216 217 219 220 221 220 219 220 221 222 223 223 224 226 227 229 232 235 239 241 243 245 248 251 252 253 252 251 247 243 241 239 236 235 225 204 187 173 151 185 199 198 214 210 190 192 200 198 198 198 202 222 222 213 208 199 191 194 203 198 188 183 180 178 178 177 176 174 172 175 176 171 168 169 167 166 164 166 169 170 169 170
211 211 213 215 217 218 220 221 219 218 219 219 220 221 221 222 223 225 228 231 235 238 240 243 246 249 249 248 249 250 250 247 242 241 241 238 233 230 220 207 199 177 166 213 212 203 205 202 198 197 197 198 198 200 203 205 213 210 200 196 197 203 203 193 187 186 181 179 178 178 178 175 175 176 171 170 171 171 171 171 171 173 175 178 179
212 212 213 213 215 217 219 219 218 217 218 218 219 219 220 221 223 226 230 233 236 238 240 243 246 249 247 245 247 249 249 247 245 242 241 239 233 230 229 222 215 204 183 188 216 203 199 204 210 205 198 197 202 205 197 196 218 215 200 197 200 205 207 197 190 191 186 181 178 178 181 179 179 180 177 176 176 174 174 176 177 179 183 186 186
211 213 214 214 214 215 217 218 218 217 217 218 218 219 219 221 223 225 229 232 234 236 239 242 245 247 245 242 243 245 247 247 247 246 243 237 231 229 231 227 222 219 208 194 198 212 202 200 210 216 208 199 201 209 206 200 218 218 201 196 203 208 208 200 193 195 191 185 180 179 183 183 182 184 183 183 183 181 181 182 183 186 190 192 196
212 213 214 215 214 214 215 216 216 216 216 217 218 218 219 221 222 224 226 229 231 234 238 240 243 244 243 241 241 243 246 245 245 246 241 231 225 226 229 228 225 223 215 204 191 203 205 203 208 215 215 207 201 210 212 202 207 214 204 200 207 209 208 204 197 196 193 187 184 185 187 187 187 187 187 188 189 186 188 189 188 192 194 195 203
212 212 212 214 215 215 214 214 215 216 216 216 217 218 218 220 222 223 224 226 229 232 235 237 239 240 241 240 241 243 244 244 243 241 234 225 221 222 224 226 226 224 217 208 200 186 194 203 209 213 216 211 204 210 213 204 200 206 205 207 210 209 209 207 201 199 194 187 185 187 189 189 189 189 187 191 195 191 191 195 197 199 202 203 207
212 212 213 215 216 216 216 215 215 215 216 216 216 217 218 219 220 221 222 224 227 230 232 235 236 237 239 240 241 242 241 241 240 236 228 222 221 221 220 222 226 228 223 212 204 191 187 197 204 208 212 210 207 210 213 208 201 201 204 209 212 211 212 211 206 203 197 192 189 188 190 191 191 193 187 188 199 199 193 198 204 207 212 213 210
212 213 214 216 217 217 218 218 218 217 217 217 217 217 218 219 219 219 221 222 225 228 231 233 234 234 236 238 239 240 239 237 235 230 225 222 224 225 221 219 224 230 227 217 209 200 191 193 198 202 205 207 208 211 214 212 206 200 204 209 211 211 214 214 212 210 204 199 197 195 196 198 198 200 192 187 199 205 199 200 207 211 218 219 213
212 212 214 216 217 218 219 221 221 219 218 218 218 219 220 220 220 220 221 222 225 228 231 233 233 232 233 235 236 237 236 233 229 223 219 221 225 224 221 218 219 226 226 219 214 210 200 192 196 203 204 205 207 210 211 210 208 205 206 211 212 212 216 218 217 216 213 207 205 204 204 206 207 209 205 194 198 206 205 206 211 213 217 221 221
212 212 213 215 217 218 220 222 223 221 219 219 219 220 222 221 221 221 221 222 225 228 231 233 232 231 231 232 233 235 234 229 225 219 217 219 221 221 221 218 217 221 222 217 214 213 209 198 192 197 202 202 204 209 210 207 204 203 207 212 216 215 218 221 220 221 220 214 212 212 211 212 214 216 216 210 206 210 211 212 215 217 215 216 220
212 212 213 214 216 218 220 223 224 223 221 219 219 221 222 223 222 222 223 224 226 228 230 232 232 231 231 232 232 234 235 230 225 222 220 220 219 218 218 219 218 216 216 214 211 211 211 205 193 190 196 199 200 204 209 210 205 201 201 207 216 217 218 221 221 223 224 221 218 218 217 216 217 218 221 221 218 217 219 219 219 221 220 215 215
211 212 213 215 216 217 219 221 224 225 223 221 222 223 223 224 224 223 223 224 226 228 230 231 231 230 231 231 230 234 238 235 230 228 225 224 222 220 220 220 219 215 212 211 209 207 206 200 193 192 194 197 200 202 207 211 208 204 200 199 205 213 218 221 222 223 224 225 224 223 223 222 221 221 222 224 225 223 225 228 224 223 224 222 217
213 213 214 216 217 219 221 221 222 223 221 218 220 223 224 224 224 224 224 224 224 226 229 230 230 229 231 231 230 234 240 241 238 234 232 230 226 222 222 222 220 216 212 208 205 204 201 195 193 196 193 192 197 199 200 201 202 204 204 202 201 207 214 218 222 224 225 226 226 226 225 224 223 224 224 225 226 226 228 231 228 224 225 225 224
213 214 215 216 217 220 223 224 224 223 220 218 217 220 224 225 224 225 225 225 225 226 229 231 230 230 231 232 231 234 240 243 243 241 239 237 232 226 222 221 222 220 214 209 204 201 198 194 192 192 190 190 192 192 192 198 202 204 204 204 205 209 213 215 220 226 228 229 228 227 226 224 223 224 224 225 225 226 227 229 228 224 222 224 226
214 214 215 215 216 220 222 224 227 226 224 225 223 222 225 227 227 228 227 228 228 229 231 233 234 233 233 234 234 234 238 242 243 243 242 239 236 233 229 224 224 222 216 210 206 202 198 194 191 190 189 192 196 196 199 205 207 204 201 203 206 209 209 210 220 227 229 230 230 230 230 228 226 224 225 226 226 225 225 226 226 225 221 221 223
214 214 215 215 217 221 222 223 225 224 224 227 225 223 226 228 229 231 232 232 231 231 233 234 236 237 236 236 236 235 236 238 239 241 241 240 237 235 233 232 230 228 224 216 210 206 202 198 197 195 192 197 203 204 205 208 206 204 204 206 206 203 199 201 212 223 227 228 228 230 233 233 230 228 228 228 228 226 226 226 226 226 225 221 219
214 215 216 217 219 223 223 221 221 222 224 226 225 224 225 225 225 227 231 234 233 233 234 235 238 240 240 239 238 236 237 237 237 237 238 238 236 234 233 234 233 234 234 230 223 216 209 204 202 201 202 207 208 206 208 210 208 207 207 206 206 203 200 203 209 218 228 227 221 223 232 235 232 230 230 231 230 230 230 229 227 227 227 222 219
212 214 217 219 220 222 222 220 220 222 224 225 225 224 225 224 221 221 224 228 231 232 234 236 238 240 240 240 239 239 239 238 238 237 236 234 233 232 232 233 232 232 235 238 237 232 225 217 211 210 214 215 213 215 219 216 208 203 203 205 207 206 205 211 217 222 228 224 215 215 226 234 233 230 232 234 233 232 233 231 228 228 227 224 222
209 211 216 218 218 219 220 221 223 225 225 225 224 224 225 224 221 220 221 223 226 229 232 235 237 237 238 238 238 240 240 239 237 236 235 233 231 229 228 228 228 229 230 233 235 236 234 230 224 222 224 224 225 230 232 223 213 209 207 207 209 210 213 220 225 227 228 226 221 216 220 232 234 231 233 237 236 235 235 232 229 228 227 225 224
211 212 215 218 218 218 219 220 223 226 227 227 226 226 226 224 223 223 223 222 222 224 228 231 233 234 235 236 237 239 240 240 240 239 236 234 231 229 227 227 228 228 229 231 232 232 233 234 233 232 233 233 234 237 235 229 225 225 223 220 219 217 217 221 225 226 229 231 226 217 216 230 234 231 234 238 238 237 236 233 229 228 227 226 225
213 214 216 219 220 220 219 219 220 225 228 229 228 228 228 227 224 224 224 222 221 221 224 228 231 232 234 235 236 237 239 241 243 242 240 237 233 230 229 229 229 229 231 234 234 234 235 235 236 237 237 238 237 236 236 232 229 227 224 219 217 212 209 211 215 220 224 226 223 217 217 229 234 231 235 238 237 237 236 233 229 228 227 226 225
211 214 218 222 223 223 222 221 221 225 228 230 230 229 230 229 225 223 222 222 223 224 225 227 229 231 232 233 233 234 237 240 242 242 240 236 233 230 229 229 229 229 233 235 235 235 235 236 236 236 236 237 237 235 237 237 233 226 215 205 205 204 200 200 206 213 217 219 220 217 216 224 231 228 229 233 234 234 234 233 230 229 228 227 226
210 214 219 222 225 225 224 224 224 226 229 230 231 231 231 229 225 223 222 221 222 226 228 228 229 231 232 232 232 232 235 239 241 241 238 234 231 229 229 228 226 228 233 235 233 233 233 233 233 232 233 235 234 233 234 233 230 226 217 211 209 202 198 201 203 205 211 218 219 214 210 218 225 220 217 222 229 232 232 231 230 228 228 228 227
212 216 218 220 223 225 226 227 228 228 230 232 233 233 233 230 226 224 222 218 219 224 227 227 228 230 232 232 232 233 236 240 241 239 236 233 230 230 230 226 224 229 236 236 234 232 230 230 231 230 230 231 231 231 231 229 227 229 227 222 215 204 201 205 203 194 196 216 217 211 207 212 216 212 207 204 216 233 232 230 229 229 228 228 227
Height
816 819 821 822 824 825 826 827 828 830 831 832 833 833 834 835 836 837 837 837 838 838 838 838 837 837 836 835 834 833 834 834 835 836 838 839 840 841 841 842 844 845 847 849 849 849 849 851 852 851 851 850 850 849 849 849 849 849 849 849 849 849 849 849 849 849 849 849 849 849 849 850 850 850 850 850 850 851 851 851 851 851 851 851 851
815 817 820 822 823 824 826 827 828 830 831 832 833 833 834 835 836 837 837 837 838 838 838 838 838 837 836 835 834 834 834 835 836 837 838 839 840 841 841 842 844 846 848 849 849 849 850 851 852 852 851 851 851 850 850 850 850 850 850 850 850 850 850 850 850 850 850 850 850 850 850 850 851 851 851 851 851 851 852 852 852 852 852 852 852
814 816 818 820 822 824 825 827 828 830 831 832 833 833 834 835 835 837 837 837 838 838 838 838 838 838 837 836 835 835 835 836 836 837 838 839 840 841 841 842 844 846 847 847 848 849 850 851 852 852 852 851 851 851 851 851 851 851 851 851 851 851 851 851 851 851 851 850 850 850 850 851 851 852 852 852 852 852 853 853 853 853 853 853 853
813 814 817 819 821 823 825 826 828 829 831 832 832 833 833 834 835 836 837 837 837 838 838 839 838 839 838 837 836 836 836 837 837 838 838 839 840 841 841 842 844 846 846 847 848 849 850 851 852 852 852 852 852 852 852 852 852 852 852 852 852 852 852 852 852 852 852 851 851 851 851 852 852 853 853 853 853 853 854 854 854 854 854 854 854
811 813 815 817 819 822 824 826 827 829 830 831 832 833 833 834 834 835 837 837 837 837 838 839 839 839 839 838 838 837 837 838 838 838 839 840 840 841 841 842 843 845 846 847 848 849 850 851 852 853 852 852 852 852 852 853 853 853 853 853 853 853 853 853 853 853 853 852 852 852 852 853 853 854 854 854 854 855 855 855 856 856 855 856 856
810 811 813 815 817 820 823 825 827 828 829 831 832 832 833 833 834 835 836 837 837 837 838 839 840 840 840 839 839 838 838 838 839 839 840 840 841 841 841 842 843 845 846 847 849 849 850 851 852 853 853 853 853 853 853 854 854 854 854 854 854 854 854 854 854 854 854 853 853 853 853 854 854 855 855 856 856 856 856 857 857 857 857 857 857
808 810 812 813 815 818 821 823 826 827 828 830 831 832 832 833 833 834 835 836 837 837 838 838 840 840 840 840 839 839 839 839 839 840 840 840 841 841 841 842 843 845 846 847 849 850 851 851 852 853 853 853 854 854 854 854 855 855 855 855 855 855 855 855 855 855 855 855 855 855 855 855 856 856 856 857 857 857 858 858 858 858 858 859 859
806 808 810 811 813 816 819 822 824 826 827 829 830 831 832 832 833 834 834 836 837 837 837 838 839 839 840 840 839 839 839 839 839 840 840 840 840 841 841 842 843 844 846 847 848 849 851 851 852 852 853 854 854 854 855 855 855 855 856 856 856 856 856 857 857 857 857 856 857 857 857 857 857 857 858 858 858 859 859 859 860 860 860 860 860
805 807 808 809 811 814 817 820 822 824 826 827 829 830 831 831 832 834 834 835 836 837 837 838 839 839 839 840 839 839 839 839 840 840 840 840 840 840 841 841 843 844 845 846 848 849 850 851 851 852 853 853 854 855 855 855 855 855 856 856 857 857 858 858 858 858 858 858 858 858 858 858 859 859 859 860 860 860 860 861 861 861 861 862 862
803 806 807 808 810 812 815 818 820 823 824 826 827 829 830 831 831 833 834 834 835 836 836 837 838 839 839 839 839 839 839 839 839 840 840 840 840 840 841 841 842 843 845 846 847 848 849 849 851 852 852 853 854 855 856 856 855 855 856 857 857 858 859 859 859 860 860 860 860 860 860 860 860 860 861 861 861 862 862 862 862 862 863 864 864
801 804 806 807 809 811 813 816 819 821 822 824 826 827 829 829 830 832 833 834 835 835 836 837 838 839 839 839 839 839 839 839 840 840 840 840 840 840 840 841 842 843 844 845 846 848 848 849 850 851 852 853 854 855 856 856 855 856 856 857 858 859 860 860 861 861 861 862 862 862 862 862 862 862 862 863 863 863 863 864 864 864 865 866 866
800 802 805 807 808 810 812 814 817 819 820 822 824 826 827 829 830 831 832 834 834 835 835 836 837 839 839 839 839 839 839 839 840 840 840 840 840 841 840 841 841 842 844 845 846 847 847 849 850 850 851 853 854 855 855 856 856 856 856 857 858 859 860 861 861 862 862 863 863 864 864 864 864 864 864 864 864 865 865 865 865 866 867 867 868
798 800 802 804 806 809 811 813 815 817 819 820 823 825 826 828 829 830 831 833 833 834 835 836 837 838 839 839 839 839 839 839 839 840 840 840 840 840 841 841 841 842 843 844 845 846 847 848 849 850 851 852 853 854 855 856 856 856 856 857 858 859 860 861 862 862 863 864 864 865 865 865 866 866 866 866 866 866 866 867 867 868 868 869 870
797 798 800 802 804 807 809 811 813 815 817 819 821 823 825 826 828 829 830 832 833 833 834 835 836 837 838 839 840 840 839 839 839 839 840 840 840 840 840 841 841 842 843 844 845 846 846 847 849 849 850 851 852 853 855 855 856 856 856 857 858 859 860 861 862 863 864 864 865 866 866 867 867 867 867 868 868 867 868 868 869 869 870 870 871
795 797 798 800 802 805 807 810 811 813 815 817 819 821 823 825 826 828 829 831 832 832 833 834 835 836 838 839 841 841 840 839 839 839 839 840 840 840 840 840 841 842 842 843 844 845 846 847 848 848 849 851 852 853 854 855 855 856 856 857 858 859 860 861 862 863 864 865 865 867 867 868 868 869 869 869 869 869 869 870 870 871 871 872 873
793 795 796 798 799 802 805 808 810 811 813 815 817 819 821 823 824 826 828 829 831 831 832 833 834 836 838 840 842 842 842 840 839 839 839 840 840 840 840 840 841 841 842 843 844 845 846 846 847 847 848 850 851 852 853 854 855 855 856 856 857 858 860 861 862 863 864 865 866 867 868 868 869 870 870 870 870 870 871 871 872 873 873 874 875
791 793 794 796 797 800 803 805 808 810 811 813 815 817 819 820 822 824 826 827 829 830 831 832 833 834 836 839 841 843 843 841 840 840 839 840 840 840 840 840 841 841 842 842 843 844 845 845 846 847 847 849 850 851 853 853 854 855 855 856 857 858 859 861 862 863 864 865 866 867 868 869 870 870 871 871 871 871 872 873 873 874 875 876 876
788 790 792 794 795 798 800 802 806 808 809 811 813 815 817 818 820 822 823 825 828 829 829 830 832 833 834 836 838 840 841 841 842 842 840 840 840 840 840 840 841 841 842 842 843 844 844 845 845 846 847 848 849 850 852 853 853 854 855 856 856 857 859 861 862 863 864 865 866 867 868 869 870 871 871 872 872 872 873 874 875 875 876 877 878
785 787 790 792 793 795 797 799 802 805 807 809 811 813 815 816 818 819 821 823 825 826 827 829 830 831 833 834 836 837 839 840 841 842 842 841 840 841 841 840 841 841 841 842 843 844 844 845 845 845 846 847 847 849 851 852 853 854 855 856 856 857 858 860 861 862 864 865 866 867 868 869 870 871 871 871 872 872 874 875 875 876 877 878 879
783 785 787 790 791 793 794 796 799 802 804 806 808 810 813 814 816 817 819 820 822 823 825 826 828 829 831 833 834 836 837 838 839 839 840 840 841 841 841 840 840 841 841 842 842 843 844 845 845 845 846 846 847 849 850 851 853 854 854 855 856 857 858 860 861 862 864 865 865 866 868 869 870 871 871 871 872 873 874 875 876 877 879 879 880
780 782 785 787 789 790 792 793 795 798 801 803 806 808 810 812 813 814 816 818 819 821 823 824 825 827 829 831 833 834 836 837 837 837 838 839 840 841 840 840 840 840 841 841 842 843 844 845 845 846 846 846 847 848 849 851 852 853 854 855 856 857 858 860 861 862 863 864 865 866 867 868 870 871 871 872 872 874 875 876 877 878 880 880 881
777 780 782 784 786 788 789 790 792 795 797 800 803 805 807 808 810 812 813 815 816 818 820 822 823 824 827 829 831 833 834 836 836 836 837 837 838 839 839 839 839 840 840 841 842 843 844 844 845 846 846 846 847 848 849 850 852 853 854 855 856 857 858 859 861 862 863 864 865 866 867 868 869 870 872 872 873 874 876 877 878 879 880 881 882
773 776 779 781 783 785 786 788 790 792 794 797 799 802 803 805 807 809 810 812 814 815 817 819 821 822 824 826 828 830 832 833 834 835 836 836 837 837 838 838 839 839 840 841 842 842 843 844 845 846 846 847 847 848 849 850 851 853 854 854 855 857 858 859 860 861 863 864 865 866 867 869 869 870 872 873 874 875 876 877 878 880 881 882 883
769 772 775 778 780 782 783 785 787 789 791 793 796 798 801 803 804 806 807 808 810 812 814 816 818 820 821 823 826 828 829 831 832 833 834 834 835 836 837 838 839 840 840 841 842 842 843 844 845 846 846 846 847 848 849 849 851 852 853 854 855 856 858 859 860 861 863 864 865 866 867 869 870 871 872 873 874 875 876 877 879 880 881 882 883
766 768 771 774 777 778 780 782 784 785 787 789 792 795 798 800 801 802 803 805 807 809 811 813 815 817 819 821 823 825 826 828 830 831 832 833 833 834 836 837 838 839 840 841 841 842 842 843 844 845 845 846 846 847 848 849 850 851 853 853 854 856 857 858 860 861 862 864 865 867 868 869 870 871 872 873 874 875 877 878 879 880 881 882 883
762 765 768 771 774 776 777 779 780 782 784 786 789 792 794 796 798 799 800 801 804 806 808 810 812 814 816 818 819 821 823 825 827 828 830 831 831 832 834 836 837 839 840 841 841 841 841 842 843 844 845 845 845 846 848 849 850 850 852 853 854 855 856 857 859 860 862 864 865 867 868 869 870 871 873 874 874 876 877 878 879 880 881 882 883
762 765 767 769 771 773 775 776 778 780 782 784 786 789 791 793 794 796 797 798 801 802 804 807 809 812 814 815 816 818 820 822 824 825 827 828 829 829 831 834 837 839 839 840 840 840 840 841 842 843 843 844 845 846 847 848 849 849 851 852 853 855 856 857 858 860 861 863 865 867 868 869 870 871 873 874 875 876 877 878 879 880 881 882 883
761 763 765 766 767 770 772 773 775 777 779 781 784 786 788 790 791 793 794 796 798 799 802 804 806 809 811 812 813 814 816 819 820 822 824 825 827 827 828 830 833 837 839 839 839 839 839 839 840 841 842 843 844 845 846 847 847 848 850 851 852 854 855 856 857 859 860 862 864 866 868 869 870 871 872 873 874 875 877 878 879 880 881 882 883
755 757 760 762 764 766 768 770 772 774 776 778 781 783 785 787 789 790 792 794 796 797 799 801 803 806 808 809 811 812 813 815 817 819 821 823 824 825 826 827 829 832 836 837 837 836 837 838 838 839 840 842 843 844 845 846 846 847 849 850 851 853 854 855 857 858 860 861 863 865 867 868 869 870 871 873 874 875 876 877 878 880 881 882 883
753 754 755 757 759 761 764 766 769 771 773 775 778 780 782 784 786 788 790 792 793 795 797 798 800 803 805 806 808 809 810 812 814 816 818 820 821 822 824 825 826 827 830 833 833 833 834 836 836 837 839 840 841 842 843 845 845 846 848 849 851 852 853 855 856 858 859 861 863 865 866 867 868 869 870 872 873 874 875 876 877 879 880 881 882
752 753 754 754 755 757 759 762 765 767 770 772 775 777 779 781 783 785 787 789 791 792 794 796 798 800 801 803 805 806 808 810 812 814 816 817 819 820 821 822 823 825 826 828 830 831 832 833 834 835 837 838 839 841 842 843 844 845 847 849 850 852 853 855 856 857 859 861 862 864 865 866 868 869 870 871 872 873 874 875 876 877 878 879 880
749 750 752 753 753 753 755 758 761 763 766 769 772 774 776 778 781 783 785 787 788 790 792 793 795 796 798 800 802 804 806 808 809 811 813 814 816 817 819 820 821 822 823 825 827 828 829 831 832 834 835 837 838 839 840 842 844 845 846 848 850 852 853 854 856 857 858 860 862 863 864 865 867 868 869 870 871 872 873 874 875 876 877 878 879
746 748 749 751 751 752 753 754 757 760 762 765 768 771 774 776 778 780 782 784 786 787 790 791 792 793 795 797 799 802 804 805 807 808 810 812 813 815 816 818 818 819 821 822 824 826 828 829 830 832 834 836 837 838 839 841 842 844 846 848 849 851 852 853 855 856 857 858 860 861 863 864 865 866 868 869 870 871 872 873 874 875 876 877 878
742 744 746 748 749 750 751 751 754 756 759 762 765 768 771 773 775 777 779 781 783 785 787 788 789 790 792 793 795 799 802 803 804 805 807 809 811 812 814 815 816 817 818 820 821 823 825 827 828 830 832 834 835 837 838 839 841 842 844 846 847 849 850 851 852 854 855 856 858 859 861 862 863 864 866 867 869 870 871 872 873 874 875 876 877
739 741 743 745 746 747 748 749 751 753 756 759 763 765 767 769 771 774 776 778 780 782 783 785 787 788 789 790 792 796 799 800 802 803 805 807 808 810 811 812 814 815 816 817 818 820 822 824 826 827 829 831 833 834 836 838 840 841 842 844 845 847 848 849 850 851 852 854 855 856 858 859 861 862 864 865 867 868 869 870 872 873 874 875 876
736 738 740 742 743 744 746 747 749 751 753 756 759 762 764 766 768 770 772 774 776 778 780 782 784 785 786 787 789 793 796 798 799 801 802 804 806 807 809 809 810 812 813 814 816 817 819 821 823 825 826 829 831 832 834 836 838 840 841 842 844 845 846 848 849 850 851 852 853 854 855 857 859 860 862 863 865 866 868 869 870 872 873 874 875
733 735 737 739 740 742 743 745 747 749 751 753 756 759 761 763 765 767 769 771 773 775 777 779 781 782 784 785 787 790 793 795 797 798 800 801 803 804 806 806 807 809 811 812 814 815 816 817 819 822 824 827 828 830 832 834 836 838 840 841 842 844 845 846 848 849 850 851 852 853 854 855 856 858 860 861 863 865 866 867 869 870 871 872 873
731 732 734 736 738 739 741 743 745 746 749 751 753 756 759 761 763 764 766 768 770 772 774 776 778 780 781 783 784 788 790 792 794 796 797 799 800 801 802 803 804 806 808 810 812 813 814 815 816 819 821 823 825 828 830 831 833 835 837 839 841 842 843 845 845 846 848 849 850 851 852 853 854 856 857 859 861 863 864 865 867 868 869 870 871
728 730 731 733 735 737 739 741 742 744 746 749 751 754 756 759 761 762 764 765 768 770 772 774 776 778 779 781 782 784 787 788 790 792 794 796 797 798 799 800 801 803 805 807 809 811 812 813 814 816 817 820 822 824 827 829 831 832 834 836 838 840 841 842 843 844 845 847 848 849 851 852 853 854 855 857 858 860 861 863 864 865 867 868 869
725 727 728 730 733 735 737 738 740 742 744 747 749 752 754 757 759 761 762 764 766 768 770 771 773 775 777 778 778 780 783 785 786 788 790 792 793 795 796 797 798 800 802 804 806 808 810 811 813 814 816 818 819 821 824 827 828 829 830 832 834 836 837 839 840 841 843 844 845 846 848 849 850 851 852 854 855 857 858 860 861 863 864 865 867
722 724 726 728 731 733 734 735 738 740 743 745 748 751 754 756 757 759 761 763 764 766 768 770 771 773 775 776 775 776 779 781 782 784 785 787 789 791 793 795 796 798 799 801 803 805 807 809 811 813 814 816 817 818 820 821 822 824 826 829 831 832 834 836 837 838 840 841 842 843 844 846 847 848 849 850 851 853 855 857 858 860 861 862 864
720 722 724 727 728 730 731 733 736 738 741 743 746 750 753 755 757 758 760 761 763 764 766 768 769 771 773 774 773 773 775 777 778 779 781 783 785 787 790 791 793 795 796 798 799 800 802 804 807 809 811 813 813 814 815 815 818 821 823 825 827 829 832 834 835 836 837 839 840 841 841 843 843 844 845 846 847 849 851 852 854 856 857 858 860
718 720 722 724 725 726 729 731 733 735 737 738 740 743 746 749 753 757 759 760 761 762 764 765 767 769 771 772 772 772 772 773 774 775 777 780 782 785 787 788 790 791 793 794 795 796 797 799 801 804 806 808 809 810 811 813 815 817 819 821 824 826 828 830 831 832 833 835 837 838 839 840 841 842 842 842 844 845 846 848 850 852 854 855 857
716 718 720 721 722 723 726 728 730 732 734 734 736 738 739 742 746 751 755 757 759 760 761 763 764 766 768 769 770 770 770 770 770 772 774 777 779 782 784 785 787 788 790 791 793 794 795 796 797 799 800 802 804 806 808 809 811 813 815 817 820 822 824 825 826 827 828 830 834 836 836 837 839 839 839 840 840 841 842 844 846 848 850 852 853
713 715 717 718 719 720 722 725 727 729 730 731 733 734 736 738 741 745 748 752 754 756 758 759 761 763 764 766 768 768 767 768 769 770 771 773 776 778 780 781 783 785 786 788 790 790 791 792 793 793 794 797 799 801 802 804 806 808 811 813 815 818 820 820 821 821 823 826 830 832 833 834 836 837 836 837 838 838 839 841 843 844 846 848 850
710 711 713 715 716 717 719 721 722 724 725 727 729 731 733 736 739 742 743 746 748 750 752 754 756 758 761 763 764 764 765 766 767 768 769 770 772 774 776 778 778 780 782 783 784 786 787 788 788 789 790 792 793 795 798 800 802 803 804 806 809 812 814 815 816 819 821 823 826 828 830 831 833 834 834 834 835 836 836 838 839 841 843 845 846
707 708 710 711 713 714 715 717 718 719 720 722 725 727 729 732 737 740 741 742 743 744 746 748 751 753 756 758 759 760 761 763 764 765 766 768 769 771 773 774 775 776 777 778 779 780 782 783 784 785 786 788 789 790 793 796 798 798 799 801 803 807 809 812 814 817 818 820 822 825 826 828 830 831 831 832 833 833 834 835 836 838 840 841 843
705 706 708 709 710 712 713 714 715 716 717 718 720 723 726 729 733 737 739 741 741 741 741 743 745 747 750 752 754 755 757 759 760 762 764 765 767 768 769 770 771 773 773 774 775 777 778 779 780 782 783 784 786 787 789 791 794 796 798 799 802 804 807 809 811 812 814 816 818 820 822 824 826 827 828 830 831 831 831 832 833 834 836 838 840
702 704 706 707 708 710 711 712 713 713 714 715 717 719 722 726 729 733 735 738 739 739 739 739 741 743 745 747 748 751 753 754 756 758 760 762 763 764 764 766 767 769 769 770 772 773 774 776 777 779 780 781 783 785 787 789 790 792 794 795 797 799 802 804 806 807 809 811 813 815 818 820 822 824 825 827 828 828 829 829 830 831 833 835 837
698 700 702 704 705 707 708 709 710 711 711 712 714 715 718 721 725 728 730 733 735 736 736 736 737 739 740 742 744 746 748 749 751 754 756 758 759 759 761 762 764 764 764 765 767 768 770 773 775 776 777 778 780 781 782 784 786 787 787 788 790 794 797 799 800 803 805 806 807 811 814 816 818 820 822 824 825 825 825 826 827 828 830 831 833
695 696 698 700 701 703 704 706 706 707 708 709 710 712 715 718 721 724 726 729 730 730 731 732 734 735 737 738 740 742 743 744 747 749 752 753 754 755 757 759 761 760 759 760 761 763 765 768 770 772 772 774 775 776 777 779 781 782 781 782 785 787 790 793 796 800 801 801 802 805 809 810 813 816 818 821 823 822 822 823 824 825 826 828 829